Location: ??????
(56.0120°N, 39.1740°E)
Time: 17:52:50
(UTC+00:00)

SL-08 R/B - Pass Details

Date: 14 April 2026
Orbit: 949 x 1017 km, 82.9° (Epoch: 16 May)

Event Time Altitude Azimuth Distance (km) Brightness Sun altitude
Exits shadow 19:02:35 21° 181° (S) 1,987 5.7 -18.2°
Maximum altitude 19:06:48 78° 98° (E) 981 4.4 -18.5°
Drops below altitude 10° 19:12:56 10° 13° (NNE) 2,688 7.4 -19.0°
Sets 19:15:25 0° 13° (NNE) 3,638 8.2 -19.2°
